LiveATC.Net - Listen to live air traffic control over the Internet!
Airport/ARTCC Code
Frequency Search
(e.g., 124.400, 128.75)
Site-wide search
 


Browse Feeds
Top 50 Feeds
HF Oceanic Feeds
Coverage Map
Bad Weather Areas

LiveATC FAQ
Offer LiveATC feed
Contact LiveATC.net
Press Inquiries

LiveATC on iPhone
LiveATC on Android

LiveATC Mobile
(Mobile browser)

ATC Audio Archives
Interesting Recordings

LiveATC Forums

Home Page
About LiveATC.net
Make a Donation
Terms of Use
Privacy Policy

Canadian Air Freqs

AIRMETs/SIGMETs

FAA Airport Status
NAS Status
Arrival Demand


Server Software By:
Icecast.org
Liquidsoap

Select an area of interest:
U.S. Feeds: Class B Airports | Class C Airports | Class D/Other Airports | ARTCC (Centers)
International Feeds: Canada | Europe | Oceania | Asia | South America | North/Central America | Africa
Misc Feeds: HF Feeds
Search by ICAO/IATA airport code:   (e.g., kbos, kjfk, lax, eham, etc.)


Currently Available Live Feeds: 3104
Status Updated: Mon Jan 24 2022 06:27:21 UTC


NOTICE

Unauthorized use prohibited. See LiveATC.net Terms of Service

North and Central America Airport Feeds

 

BGGH AFIS (Archives)
Nuuk, Greenland

Feed Status: UP
Listen in your browser - HTML5 player(in browser, HTML5)
Click here to listen with your own player(launches your MP3 player)



Listeners: 0 out of 1300 total


MDPP App/Dep (Archives)
Puerto Plata, Dominican Republic

Feed Status: UP
Listen in your browser - HTML5 player(in browser, HTML5)
Click here to listen with your own player(launches your MP3 player)

MDPP 240600Z 00000KT 9999 FEW018 20/19 Q1013

MDPP Flight Activity (Flightaware)

Listeners: 0 out of 1300 total

Puerto Plata Approach/Departure: 119.000

MDPP Ground/Center (Archives)
Puerto Plata, Dominican Republic

Feed Status: UP
Listen in your browser - HTML5 player(in browser, HTML5)
Click here to listen with your own player(launches your MP3 player)

MDPP 240600Z 00000KT 9999 FEW018 20/19 Q1013

MDPP Flight Activity (Flightaware)

Listeners: 0 out of 1300 total

Puerto Plata Ground: 121.900
Santo Domingo Center: 124.300

MDPP Ground/Tower/Center (Archives)
Puerto Plata, Dominican Republic

Feed Status: UP
Listen in your browser - HTML5 player(in browser, HTML5)
Click here to listen with your own player(launches your MP3 player)

MDPP 240600Z 00000KT 9999 FEW018 20/19 Q1013

MDPP Flight Activity (Flightaware)

Listeners: 0 out of 1300 total

Puerto Plata Ground: 121.900
Puerto Plata Tower: 118.000
Santo Domingo Center: 124.300

MDPP Tower (Archives)
Puerto Plata, Dominican Republic

Feed Status: UP
Listen in your browser - HTML5 player(in browser, HTML5)
Click here to listen with your own player(launches your MP3 player)

MDPP 240600Z 00000KT 9999 FEW018 20/19 Q1013

MDPP Flight Activity (Flightaware)

Listeners: 0 out of 1300 total

Puerto Plata Tower: 118.000

MMAN Tower
Monterrey, Mexico

Feed Status: DOWN
Offline since: 2022-01-18 22:36:39 UTC

MMAN 240541Z 00000KT 1SM -DZ BR OVC003 08/08 A3009 RMK SLP/// 5//// 9// 60015 8/5//

Monterrey Tower: 118.600

MMCU Twr/App (Archives)
Chihuahua, Mexico

Feed Status: UP
Listen in your browser - HTML5 player(in browser, HTML5)
Click here to listen with your own player(launches your MP3 player)


MMCU Flight Activity (Flightaware)

Listeners: 0 out of 1300 total

Chihuahua Approach: 121.000
Chihuahua Tower: 118.400

MMGL Twr/App (Archives)
Guadalajara, Mexico

Feed Status: UP
Listen in your browser - HTML5 player(in browser, HTML5)
Click here to listen with your own player(launches your MP3 player)

MMGL 240549Z 25002KT 8SM SCT090 BKN300 16/06 A3019 RMK SLP127 52012 953 8/038

MMGL Flight Activity (Flightaware)

Listeners: 5 out of 1300 total

Guadalajara Approach: 120.800
Guadalajara Tower: 118.100

MMHO App/Dep (Archives)
Hermosillo, Mexico

Feed Status: UP
Listen in your browser - HTML5 player(in browser, HTML5)
Click here to listen with your own player(launches your MP3 player)

MMHO 240540Z 00000KT 10SM SKC 12/04 A3006 RMK SLP182 52002 913 HZY

MMHO Flight Activity (Flightaware)

Listeners: 0 out of 1300 total

Hermosillo Approach/Departure: 121.400

MMHO Info (Archives)
Hermosillo, Mexico

Feed Status: UP
Listen in your browser - HTML5 player(in browser, HTML5)
Click here to listen with your own player(launches your MP3 player)

MMHO 240540Z 00000KT 10SM SKC 12/04 A3006 RMK SLP182 52002 913 HZY

MMHO Flight Activity (Flightaware)

Listeners: 0 out of 1300 total

Hermosillo Info: 122.300

MMHO Tower (Archives)
Hermosillo, Mexico

Feed Status: UP
Listen in your browser - HTML5 player(in browser, HTML5)
Click here to listen with your own player(launches your MP3 player)

MMHO 240540Z 00000KT 10SM SKC 12/04 A3006 RMK SLP182 52002 913 HZY

MMHO Flight Activity (Flightaware)

Listeners: 0 out of 1300 total

Hermosillo Tower: 118.700

MMHO Twr/App (Archives)
Hermosillo, Mexico

Feed Status: UP
Listen in your browser - HTML5 player(in browser, HTML5)
Click here to listen with your own player(launches your MP3 player)

MMHO 240540Z 00000KT 10SM SKC 12/04 A3006 RMK SLP182 52002 913 HZY

MMHO Flight Activity (Flightaware)

Listeners: 0 out of 1300 total

Hermosillo Approach/Departure: 121.400
Hermosillo Info: 122.300
Hermosillo Tower: 118.700

MMLP Twr/App (Archives)
La Paz, Mexico

Feed Status: UP
Listen in your browser - HTML5 player(in browser, HTML5)
Click here to listen with your own player(launches your MP3 player)

MMLP 240545Z 03006KT 10SM FEW100 BKN200 18/09 A3006 RMK 8/078

MMLP Flight Activity (Flightaware)

Listeners: 0 out of 1300 total

La Paz Approach: 120.600
La Paz Tower: 118.100

MMMD App/Dep (Archives)
Merida, Mexico

Feed Status: UP
Listen in your browser - HTML5 player(in browser, HTML5)
Click here to listen with your own player(launches your MP3 player)

MMMD 240541Z 00000KT 6SM SKC 21/17 A3003

MMMD Flight Activity (Flightaware)

Listeners: 0 out of 1300 total

Merida Approach: 121.200

MMMD Merida Center 125.2/128.2 (Archives)
Merida, Mexico

Feed Status: UP
Listen in your browser - HTML5 player(in browser, HTML5)
Click here to listen with your own player(launches your MP3 player)

MMMD 240541Z 00000KT 6SM SKC 21/17 A3003

MMMD Flight Activity (Flightaware)

Listeners: 0 out of 1300 total

Merida Center: 125.200
Merida Center: 128.200

MMMD Merida Center 125.8/123.75 (Archives)
Merida, Mexico

Feed Status: UP
Listen in your browser - HTML5 player(in browser, HTML5)
Click here to listen with your own player(launches your MP3 player)

MMMD 240541Z 00000KT 6SM SKC 21/17 A3003

MMMD Flight Activity (Flightaware)

Listeners: 0 out of 1300 total

Merida Center: 125.800
Merida Center: 123.750

MMMD Tower (Archives)
Merida, Mexico

Feed Status: UP
Listen in your browser - HTML5 player(in browser, HTML5)
Click here to listen with your own player(launches your MP3 player)

MMMD 240541Z 00000KT 6SM SKC 21/17 A3003

MMMD Flight Activity (Flightaware)

Listeners: 0 out of 1300 total

Merida Tower: 118.300

MMMM Tower (Archives)
Morelia, Mexico

Feed Status: UP
Listen in your browser - HTML5 player(in browser, HTML5)
Click here to listen with your own player(launches your MP3 player)

MMMM 240549Z 23003KT 7SM FEW120 FEW300 14/06 A3020 RMK SLP109 52006 968 8/032

MMMM Flight Activity (Flightaware)

Listeners: 0 out of 1300 total

Morelia Tower: 118.500

MMMX Approach (Archives)
Mexico City, Mexico

Feed Status: UP
Listen in your browser - HTML5 player(in browser, HTML5)
Click here to listen with your own player(launches your MP3 player)

MMMX 240545Z 00000KT 10SM SKC 15/04 A3028 NOSIG RMK SLP103 52001 971

MMMX Flight Activity (Flightaware)

Listeners: 5 out of 1300 total

Mexico City Approach: 121.200

MMMX Twr/App (Archives)
Mexico City, Mexico

Feed Status: UP
Listen in your browser - HTML5 player(in browser, HTML5)
Click here to listen with your own player(launches your MP3 player)

MMMX 240545Z 00000KT 10SM SKC 15/04 A3028 NOSIG RMK SLP103 52001 971

MMMX Flight Activity (Flightaware)

Listeners: 8 out of 1300 total

Mexico City Approach: 121.200
Mexico City Arrival (North): 129.650
Mexico City Arrival (South): 119.100
Mexico City Final Approach: 119.750
Mexico City Tower: 118.550

MMMY Tower/Approach (Archives)
Monterrey, Mexico

Feed Status: UP
Listen in your browser - HTML5 player(in browser, HTML5)
Click here to listen with your own player(launches your MP3 player)

MMMY 240540Z 00000KT 1SM BR OVC003 08/08 A3005 RMK SLP/// 5//// 9// 60025 8/7// DZ INTMT

MMMY Flight Activity (Flightaware)

Listeners: 3 out of 1300 total

Monterrey Approach/Departure: 119.750
Monterrey Tower: 118.100

MMPC CTAF
Pachuca, Mexico

Feed Status: DOWN
Offline since: 2022-01-24 06:07:21 UTC

Pachuca CTAF/AFIS: 122.900

MMQT Tower/App
Queretaro, Mexico

Feed Status: DOWN
Offline since: 2021-10-10 15:21:05 UTC

MMQT 240540Z 00000KT 7SM FEW015 11/06 A3026 RMK 8/500

Queretaro Approach: 127.200
Queretaro Tower: 118.950

MMTC Twr/App/Center (Archives)
Torreon, Mexico

Feed Status: UP
Listen in your browser - HTML5 player(in browser, HTML5)
Click here to listen with your own player(launches your MP3 player)


MMTC Flight Activity (Flightaware)

Listeners: 0 out of 1300 total

Mazatlan Center: 124.200
Mazatlan Center: 124.400
Mazatlan Center: 128.000
Mexico Center: 123.900
Monterrey Center: 125.600
Monterrey Center: 125.425
Monterrey Center: 127.400
Torreon Approach: 119.500
Torreon Tower: 118.500

MMTJ Approach (Archives)
Tijuana, Mexico

Feed Status: UP
Listen in your browser - HTML5 player(in browser, HTML5)
Click here to listen with your own player(launches your MP3 player)

MMTJ 240549Z 06003KT 8SM SKC 12/03 A3017 RMK SLP217 58003 917

MMTJ Flight Activity (Flightaware)

Listeners: 0 out of 1300 total

Tijuana Approach: 120.300

MMTJ Twr/Ramp (Archives)
Tijuana, Mexico

Feed Status: UP
Listen in your browser - HTML5 player(in browser, HTML5)
Click here to listen with your own player(launches your MP3 player)

MMTJ 240549Z 06003KT 8SM SKC 12/03 A3017 RMK SLP217 58003 917

MMTJ Flight Activity (Flightaware)

Listeners: 2 out of 1300 total

Tijuana Ramp: 126.100
Tijuana Tower: 118.100

MUFH Havana FIR (App/Center) (Archives)
Havana, Cuba

Feed Status: UP
Listen in your browser - HTML5 player(in browser, HTML5)
Click here to listen with your own player(launches your MP3 player)

MUFH Flight Activity (Flightaware)

Listeners: 0 out of 1300 total

Hava Approach: 120.300
Havana Center: 120.250
Havana Center: 123.700
Havana Center: 124.550
Havana Center: 133.700
Havana Center: 135.100

Miami Center (Bahamas Area) (Archives)
Deadman's Cay, Bahamas

Feed Status: UP
Listen in your browser - HTML5 player(in browser, HTML5)
Click here to listen with your own player(launches your MP3 player)


MYLD Flight Activity (Flightaware)

Listeners: 0 out of 1300 total

Miami Center: 126.450
Miami Center: 135.200

MYLD Emergency/Guard (Archives)
Deadman's Cay, Bahamas

Feed Status: UP
Listen in your browser - HTML5 player(in browser, HTML5)
Click here to listen with your own player(launches your MP3 player)


MYLD Flight Activity (Flightaware)

Listeners: 0 out of 1300 total

Emergency/Guard: 121.500

MYLD/MYLS CTAF (Archives)
Deadman's Cay, Bahamas

Feed Status: UP
Listen in your browser - HTML5 player(in browser, HTML5)
Click here to listen with your own player(launches your MP3 player)


MYLD Flight Activity (Flightaware)

Listeners: 0 out of 1300 total

Deadmans Cay CTAF: 122.800

MYLD/MYLS CTAF (Archives)
Stella Maris, Bahamas

Feed Status: UP
Listen in your browser - HTML5 player(in browser, HTML5)
Click here to listen with your own player(launches your MP3 player)


MYLD Flight Activity (Flightaware)

Listeners: 0 out of 1300 total

Deadmans Cay CTAF: 122.800

TBPB Gnd/Twr/Radar/Center
Bridgetown, Barbados

Feed Status: DOWN
Offline since: 2022-01-24 03:00:23 UTC

TBPB 240600Z 10014KT 9999 SCT018 25/20 Q1012 NOSIG

Adams Approach/Departure: 129.350
Adams Approach/Departure: 128.850
Adams Ground: 121.900
Adams Tower: 118.700
Piarco Center: 123.700

TNCM App/Dep (Archives)
Philipsburg, Saint Martin

Feed Status: UP
Listen in your browser - HTML5 player(in browser, HTML5)
Click here to listen with your own player(launches your MP3 player)

TNCM 240500Z 08004KT 050V130 9999 FEW018 SCT035 25/21 Q1015

TNCM Flight Activity (Flightaware)

Listeners: 0 out of 1300 total

Juliana Approach (only when busy): 128.950

TNCM Clearance Delivery (Archives)
Philipsburg, Saint Martin

Feed Status: UP
Listen in your browser - HTML5 player(in browser, HTML5)
Click here to listen with your own player(launches your MP3 player)

TNCM 240500Z 08004KT 050V130 9999 FEW018 SCT035 25/21 Q1015

TNCM Flight Activity (Flightaware)

Listeners: 0 out of 1300 total

Juliana Clearance Delivery: 121.650

TNCM Tower (Archives)
Philipsburg, Saint Martin

Feed Status: UP
Listen in your browser - HTML5 player(in browser, HTML5)
Click here to listen with your own player(launches your MP3 player)

TNCM 240500Z 08004KT 050V130 9999 FEW018 SCT035 25/21 Q1015

TNCM Flight Activity (Flightaware)

Listeners: 2 out of 1300 total

Juliana Tower (TNCM): 118.700

TQPF Tower (Archives)
The Valley, Anguilla

Feed Status: UP
Listen in your browser - HTML5 player(in browser, HTML5)
Click here to listen with your own player(launches your MP3 player)

TNCM 240500Z 08004KT 050V130 9999 FEW018 SCT035 25/21 Q1015

TNCM Flight Activity (Flightaware)

Listeners: 0 out of 1300 total

Anguilla Tower: 118.500

TXKF ATIS (Archives)
Hamilton, Bermuda

Feed Status: UP
Listen in your browser - HTML5 player(in browser, HTML5)
Click here to listen with your own player(launches your MP3 player)

TXKF 240555Z 21012KT 9999 VCSH FEW010 BKN045 BKN300 19/18 Q1009

TXKF Flight Activity (Flightaware)

Listeners: 0 out of 1300 total

Bermuda ATIS: 119.600

TXKF Del/Gnd (Archives)
Hamilton, Bermuda

Feed Status: UP
Listen in your browser - HTML5 player(in browser, HTML5)
Click here to listen with your own player(launches your MP3 player)

TXKF 240555Z 21012KT 9999 VCSH FEW010 BKN045 BKN300 19/18 Q1009

TXKF Flight Activity (Flightaware)

Listeners: 0 out of 1300 total

Bermuda Ground/Clearance: 124.500

TXKF Del/Gnd/Twr/CTAF (Archives)
Hamilton, Bermuda

Feed Status: UP
Listen in your browser - HTML5 player(in browser, HTML5)
Click here to listen with your own player(launches your MP3 player)

TXKF 240555Z 21012KT 9999 VCSH FEW010 BKN045 BKN300 19/18 Q1009

TXKF Flight Activity (Flightaware)

Listeners: 0 out of 1300 total

Bermuda CTAF: 122.800
Bermuda Ground/Clearance: 124.500
Bermuda Tower: 118.100

TXKF Tower (Archives)
Hamilton, Bermuda

Feed Status: UP
Listen in your browser - HTML5 player(in browser, HTML5)
Click here to listen with your own player(launches your MP3 player)

TXKF 240555Z 21012KT 9999 VCSH FEW010 BKN045 BKN300 19/18 Q1009

TXKF Flight Activity (Flightaware)

Listeners: 0 out of 1300 total

Bermuda Tower: 118.100

ZNY Sector 81 (Bermuda)/App (Archives)
Hamilton, Bermuda

Feed Status: UP
Listen in your browser - HTML5 player(in browser, HTML5)
Click here to listen with your own player(launches your MP3 player)

TXKF 240555Z 21012KT 9999 VCSH FEW010 BKN045 BKN300 19/18 Q1009

TXKF Flight Activity (Flightaware)

Listeners: 0 out of 1300 total

New York Approach: 119.100
New York Center (BDA81 Bermuda Sector): 128.500

MHLC Gnd/Twr/Center (Archives)
La Ceiba, Honduras

Feed Status: UP
Listen in your browser - HTML5 player(in browser, HTML5)
Click here to listen with your own player(launches your MP3 player)

MHLC 240600Z VRB02KT 8000 SCT022 BKN070 22/21 Q1014 A2995 NOSIG

MHLC Flight Activity (Flightaware)

Listeners: 0 out of 1300 total

CENAMER: 123.900
CENAMER: 124.300
Goloson Ground: 121.900
Goloson Tower: 118.500
La Ceiba Radio: 128.900

MHLM Gnd/Twr/App
San Pedro Sula, Honduras

Feed Status: DOWN
Offline since: 2022-01-02 14:06:22 UTC

MHLM 240600Z 00000KT 9999 SCT026 BKN070 23/20 Q1014 A2995 NOSIG

La Mesa Ground: 121.900
La Mesa Tower: 118.200
San Pedro Sula Approach: 119.700

MHRO Gnd/Twr/App/Center (Archives)
Roatan, Honduras

Feed Status: UP
Listen in your browser - HTML5 player(in browser, HTML5)
Click here to listen with your own player(launches your MP3 player)

MHRO 240600Z 00000KT 9999 SCT020 SCT080 23/23 Q1014 A2995 RERA NOSIG

MHRO Flight Activity (Flightaware)

Listeners: 0 out of 1300 total

CENAMER (Center): 124.300
La Ceiba Radio: 128.900
Roatan Ground: 121.600
Roatan Tower: 118.100

MHTG ATIS (Archives)
Tegucigalpa, Honduras

Feed Status: UP
Listen in your browser - HTML5 player(in browser, HTML5)
Click here to listen with your own player(launches your MP3 player)

MHTG 240600Z 04004KT 8000 VCSH FEW010 SCT028 BKN080 20/17 Q1020 A3012 NOSIG

MHTG Flight Activity (Flightaware)

Listeners: 0 out of 1300 total

Toncontin ATIS: 127.750

MHTG Gnd/Twr/App/Ctr/Ops (Archives)
Tegucigalpa, Honduras

Feed Status: UP
Listen in your browser - HTML5 player(in browser, HTML5)
Click here to listen with your own player(launches your MP3 player)

MHTG 240600Z 04004KT 8000 VCSH FEW010 SCT028 BKN080 20/17 Q1020 A3012 NOSIG

MHTG Flight Activity (Flightaware)

Listeners: 0 out of 1300 total

American Airlines Ops: 130.700
ARINC ACARS: 131.550
Cenamer Center: 123.900
Cenamer Center: 124.300
Cenamer Center: 124.100
CMP Ops: 129.925
Continental Airlines Ops: 129.925
FAH Ground: 122.900
Taca Ops: 131.300
Taca Ops Sal: 130.300
Tecnologias Unidas: 133.000
Tegucigalpa RDO: 126.700
Toncontin Approach: 119.100
Toncontin Ground: 121.900
Toncontin Tower: 118.700

MPMG Ground (Archives)
Panama City, Panama

Feed Status: UP
Listen in your browser - HTML5 player(in browser, HTML5)
Click here to listen with your own player(launches your MP3 player)

MPMG 240500Z AUTO 32004KT //// R01///// // SCT042/// BKN084/// 24/21 Q1010

MPMG Flight Activity (Flightaware)

Listeners: 0 out of 1300 total

Gelabert Ground: 121.700

MPMG Tower (Archives)
Panama City, Panama

Feed Status: UP
Listen in your browser - HTML5 player(in browser, HTML5)
Click here to listen with your own player(launches your MP3 player)

MPMG 240500Z AUTO 32004KT //// R01///// // SCT042/// BKN084/// 24/21 Q1010

MPMG Flight Activity (Flightaware)

Listeners: 0 out of 1300 total

Gelabert Tower: 118.300

Panama App/Dep #2 (Archives)
Panama City, Panama

Feed Status: UP
Listen in your browser - HTML5 player(in browser, HTML5)
Click here to listen with your own player(launches your MP3 player)


MPPA Flight Activity (Flightaware)

Listeners: 0 out of 1300 total

Panama Approach: 119.700
Panama Departure: 119.200

Panama App/Dep #3 (Archives)
Panama City, Panama

Feed Status: UP
Listen in your browser - HTML5 player(in browser, HTML5)
Click here to listen with your own player(launches your MP3 player)

MPTO 240600Z VRB02KT 9999 FEW020 22/20 Q1010 NOSIG

MPTO Flight Activity (Flightaware)

Listeners: 0 out of 1300 total

Panama Approach: 119.700
Panama Departure: 119.200

Panama Approach #1 (Archives)
Panama City, Panama

Feed Status: UP
Listen in your browser - HTML5 player(in browser, HTML5)
Click here to listen with your own player(launches your MP3 player)

MPMG 240500Z AUTO 32004KT //// R01///// // SCT042/// BKN084/// 24/21 Q1010

MPMG Flight Activity (Flightaware)

Listeners: 0 out of 1300 total

Panama Approach: 119.700

Panama Center #1
Panama City, Panama

Feed Status: DOWN
Offline since: 2021-11-29 18:41:05 UTC

MPMG 240500Z AUTO 32004KT //// R01///// // SCT042/// BKN084/// 24/21 Q1010

Panama Center: 134.900
Panama Center (North): 133.300
Panama Center (North): 125.500
Panama Center (South): 123.300
Panama Center (South): 133.000

Panama Center #2 (Archives)
Panama City, Panama

Feed Status: UP
Listen in your browser - HTML5 player(in browser, HTML5)
Click here to listen with your own player(launches your MP3 player)


MPPA Flight Activity (Flightaware)

Listeners: 0 out of 1300 total

Panama Center: 134.900
Panama Center (North): 125.500
Panama Center (North): 133.300
Panama Center (South): 123.300
Panama Center (South): 133.000

Panama Radio #1
Panama City, Panama

Feed Status: DOWN
Offline since: 2021-12-17 13:13:39 UTC

MPMG 240500Z AUTO 32004KT //// R01///// // SCT042/// BKN084/// 24/21 Q1010

Panama Radio: 123.600
Panama Radio: 126.900

Panama Traffic Advisory #1 (Archives)
Panama City, Panama

Feed Status: UP
Listen in your browser - HTML5 player(in browser, HTML5)
Click here to listen with your own player(launches your MP3 player)

MPMG 240500Z AUTO 32004KT //// R01///// // SCT042/// BKN084/// 24/21 Q1010

MPMG Flight Activity (Flightaware)

Listeners: 0 out of 1300 total

Panama Traffic Advisory: 121.200

MPPA Ground (Archives)
Panama City, Panama

Feed Status: UP
Listen in your browser - HTML5 player(in browser, HTML5)
Click here to listen with your own player(launches your MP3 player)


MPPA Flight Activity (Flightaware)

Listeners: 0 out of 1300 total

Pacifico Ground: 121.100

MPPA Ground/Tower (Archives)
Panama City, Panama

Feed Status: UP
Listen in your browser - HTML5 player(in browser, HTML5)
Click here to listen with your own player(launches your MP3 player)


MPPA Flight Activity (Flightaware)

Listeners: 0 out of 1300 total

Pacifico Ground: 121.100
Pacifico Tower: 118.900

MPPA Tower (Archives)
Panama City, Panama

Feed Status: UP
Listen in your browser - HTML5 player(in browser, HTML5)
Click here to listen with your own player(launches your MP3 player)


MPPA Flight Activity (Flightaware)

Listeners: 0 out of 1300 total

Pacifico Tower: 118.900

Panama App/Dep #2 (Archives)
Panama City, Panama

Feed Status: UP
Listen in your browser - HTML5 player(in browser, HTML5)
Click here to listen with your own player(launches your MP3 player)


MPPA Flight Activity (Flightaware)

Listeners: 0 out of 1300 total

Panama Approach: 119.700
Panama Departure: 119.200

Panama App/Dep #3 (Archives)
Panama City, Panama

Feed Status: UP
Listen in your browser - HTML5 player(in browser, HTML5)
Click here to listen with your own player(launches your MP3 player)

MPTO 240600Z VRB02KT 9999 FEW020 22/20 Q1010 NOSIG

MPTO Flight Activity (Flightaware)

Listeners: 0 out of 1300 total

Panama Approach: 119.700
Panama Departure: 119.200

Panama Approach #1 (Archives)
Panama City, Panama

Feed Status: UP
Listen in your browser - HTML5 player(in browser, HTML5)
Click here to listen with your own player(launches your MP3 player)

MPMG 240500Z AUTO 32004KT //// R01///// // SCT042/// BKN084/// 24/21 Q1010

MPMG Flight Activity (Flightaware)

Listeners: 0 out of 1300 total

Panama Approach: 119.700

Panama Center #1
Panama City, Panama

Feed Status: DOWN
Offline since: 2021-11-29 18:41:05 UTC

MPMG 240500Z AUTO 32004KT //// R01///// // SCT042/// BKN084/// 24/21 Q1010

Panama Center: 134.900
Panama Center (North): 133.300
Panama Center (North): 125.500
Panama Center (South): 123.300
Panama Center (South): 133.000

Panama Center #2 (Archives)
Panama City, Panama

Feed Status: UP
Listen in your browser - HTML5 player(in browser, HTML5)
Click here to listen with your own player(launches your MP3 player)


MPPA Flight Activity (Flightaware)

Listeners: 0 out of 1300 total

Panama Center: 134.900
Panama Center (North): 125.500
Panama Center (North): 133.300
Panama Center (South): 123.300
Panama Center (South): 133.000

Panama Radio #1
Panama City, Panama

Feed Status: DOWN
Offline since: 2021-12-17 13:13:39 UTC

MPMG 240500Z AUTO 32004KT //// R01///// // SCT042/// BKN084/// 24/21 Q1010

Panama Radio: 123.600
Panama Radio: 126.900

Panama Traffic Advisory #1 (Archives)
Panama City, Panama

Feed Status: UP
Listen in your browser - HTML5 player(in browser, HTML5)
Click here to listen with your own player(launches your MP3 player)

MPMG 240500Z AUTO 32004KT //// R01///// // SCT042/// BKN084/// 24/21 Q1010

MPMG Flight Activity (Flightaware)

Listeners: 0 out of 1300 total

Panama Traffic Advisory: 121.200

MPTO ATIS (Archives)
Panama City, Panama

Feed Status: UP
Listen in your browser - HTML5 player(in browser, HTML5)
Click here to listen with your own player(launches your MP3 player)

MPTO 240600Z VRB02KT 9999 FEW020 22/20 Q1010 NOSIG

MPTO Flight Activity (Flightaware)

Listeners: 0 out of 1300 total

Panama ATIS: 127.700

MPTO Clearance Delivery (Archives)
Panama City, Panama

Feed Status: UP
Listen in your browser - HTML5 player(in browser, HTML5)
Click here to listen with your own player(launches your MP3 player)

MPTO 240600Z VRB02KT 9999 FEW020 22/20 Q1010 NOSIG

MPTO Flight Activity (Flightaware)

Listeners: 0 out of 1300 total

Panama Clearance Delivery: 129.800

MPTO Del/Ground (Archives)
Panama City, Panama

Feed Status: UP
Listen in your browser - HTML5 player(in browser, HTML5)
Click here to listen with your own player(launches your MP3 player)

MPTO 240600Z VRB02KT 9999 FEW020 22/20 Q1010 NOSIG

MPTO Flight Activity (Flightaware)

Listeners: 0 out of 1300 total

Panama Clearance Delivery: 129.800
Panama Ground: 121.900

MPTO Ground (Archives)
Panama City, Panama

Feed Status: UP
Listen in your browser - HTML5 player(in browser, HTML5)
Click here to listen with your own player(launches your MP3 player)

MPTO 240600Z VRB02KT 9999 FEW020 22/20 Q1010 NOSIG

MPTO Flight Activity (Flightaware)

Listeners: 0 out of 1300 total

Panama Ground: 121.900

MPTO Ground/Tower (Archives)
Panama City, Panama

Feed Status: UP
Listen in your browser - HTML5 player(in browser, HTML5)
Click here to listen with your own player(launches your MP3 player)

MPTO 240600Z VRB02KT 9999 FEW020 22/20 Q1010 NOSIG

MPTO Flight Activity (Flightaware)

Listeners: 0 out of 1300 total

Panama Ground: 121.900
Panama Tower: 118.100

MPTO Tower (Archives)
Panama City, Panama

Feed Status: UP
Listen in your browser - HTML5 player(in browser, HTML5)
Click here to listen with your own player(launches your MP3 player)

MPTO 240600Z VRB02KT 9999 FEW020 22/20 Q1010 NOSIG

MPTO Flight Activity (Flightaware)

Listeners: 0 out of 1300 total

Panama Tower: 118.100

Panama App/Dep #2 (Archives)
Panama City, Panama

Feed Status: UP
Listen in your browser - HTML5 player(in browser, HTML5)
Click here to listen with your own player(launches your MP3 player)


MPPA Flight Activity (Flightaware)

Listeners: 0 out of 1300 total

Panama Approach: 119.700
Panama Departure: 119.200

Panama App/Dep #3 (Archives)
Panama City, Panama

Feed Status: UP
Listen in your browser - HTML5 player(in browser, HTML5)
Click here to listen with your own player(launches your MP3 player)

MPTO 240600Z VRB02KT 9999 FEW020 22/20 Q1010 NOSIG

MPTO Flight Activity (Flightaware)

Listeners: 0 out of 1300 total

Panama Approach: 119.700
Panama Departure: 119.200

Panama Approach #1 (Archives)
Panama City, Panama

Feed Status: UP
Listen in your browser - HTML5 player(in browser, HTML5)
Click here to listen with your own player(launches your MP3 player)

MPMG 240500Z AUTO 32004KT //// R01///// // SCT042/// BKN084/// 24/21 Q1010

MPMG Flight Activity (Flightaware)

Listeners: 0 out of 1300 total

Panama Approach: 119.700

Panama Center #1
Panama City, Panama

Feed Status: DOWN
Offline since: 2021-11-29 18:41:05 UTC

MPMG 240500Z AUTO 32004KT //// R01///// // SCT042/// BKN084/// 24/21 Q1010

Panama Center: 134.900
Panama Center (North): 133.300
Panama Center (North): 125.500
Panama Center (South): 123.300
Panama Center (South): 133.000

Panama Center #2 (Archives)
Panama City, Panama

Feed Status: UP
Listen in your browser - HTML5 player(in browser, HTML5)
Click here to listen with your own player(launches your MP3 player)


MPPA Flight Activity (Flightaware)

Listeners: 0 out of 1300 total

Panama Center: 134.900
Panama Center (North): 125.500
Panama Center (North): 133.300
Panama Center (South): 123.300
Panama Center (South): 133.000

Panama Radio #1
Panama City, Panama

Feed Status: DOWN
Offline since: 2021-12-17 13:13:39 UTC

MPMG 240500Z AUTO 32004KT //// R01///// // SCT042/// BKN084/// 24/21 Q1010

Panama Radio: 123.600
Panama Radio: 126.900

Panama Traffic Advisory #1 (Archives)
Panama City, Panama

Feed Status: UP
Listen in your browser - HTML5 player(in browser, HTML5)
Click here to listen with your own player(launches your MP3 player)

MPMG 240500Z AUTO 32004KT //// R01///// // SCT042/// BKN084/// 24/21 Q1010

MPMG Flight Activity (Flightaware)

Listeners: 0 out of 1300 total

Panama Traffic Advisory: 121.200

CENAMER/Panama ACC (Archives)
San Jose, Costa Rica

Feed Status: UP
Listen in your browser - HTML5 player(in browser, HTML5)
Click here to listen with your own player(launches your MP3 player)

MROC 240600Z 12013G23KT CAVOK 20/12 A2995 NOSIG

MROC Flight Activity (Flightaware)

Listeners: 0 out of 1300 total

Central American Center (CENAMER Control): 124.100
Central American Center (CENAMER Control): 123.900
Panama Center: 133.000

MROC Del/Gnd/Twr (Archives)
San Jose, Costa Rica

Feed Status: UP
Listen in your browser - HTML5 player(in browser, HTML5)
Click here to listen with your own player(launches your MP3 player)

MROC 240600Z 12013G23KT CAVOK 20/12 A2995 NOSIG

MROC Flight Activity (Flightaware)

Listeners: 0 out of 1300 total

Coco Clearance Delivery/Ground: 121.900
Coco Tower: 118.600

MROC Del/Gnd/Twr/App/Center/Misc (Archives)
San Jose, Costa Rica

Feed Status: UP
Listen in your browser - HTML5 player(in browser, HTML5)
Click here to listen with your own player(launches your MP3 player)

MROC 240600Z 12013G23KT CAVOK 20/12 A2995 NOSIG

MROC Flight Activity (Flightaware)

Listeners: 1 out of 1300 total

Coco Center (Control over CR Airspace): 119.600
Coco Clearance Delivery: 121.300
Coco Ground: 121.900
Coco Terminal Control: 120.500
Coco Tower: 118.600
Coco UNICOM: 126.800

MROC Gnd/Twr/App/Center (Archives)
San Jose, Costa Rica

Feed Status: UP
Listen in your browser - HTML5 player(in browser, HTML5)
Click here to listen with your own player(launches your MP3 player)

MROC 240600Z 12013G23KT CAVOK 20/12 A2995 NOSIG

MROC Flight Activity (Flightaware)

Listeners: 0 out of 1300 total

Central American Center (CENAMER Control): 124.100
Coco Center (Control over CR Airspace): 119.600
Coco Ground: 121.900
Coco Terminal Control: 120.500
Coco Tower: 118.600

MRPV Ground/Tower (Archives)
San Jose, Costa Rica

Feed Status: UP
Listen in your browser - HTML5 player(in browser, HTML5)
Click here to listen with your own player(launches your MP3 player)


MRPV Flight Activity (Flightaware)

Listeners: 1 out of 1300 total

Pavas Ground: 121.700
Pavas Tower: 118.300

MSLP Gnd/Twr/App (Archives)
San Salvador, El Salvador

Feed Status: UP
Listen in your browser - HTML5 player(in browser, HTML5)
Click here to listen with your own player(launches your MP3 player)

MSLP 240550Z 02004KT 360V070 CAVOK 23/20 Q1011 A2986 NOSIG

MSLP Flight Activity (Flightaware)

Listeners: 0 out of 1300 total

Comalapa Ground: 121.700
Comalapa Tower: 118.000
Compalapa Approach: 119.900

MSLP Gnd/Twr/App/Center (Archives)
San Salvador, El Salvador

Feed Status: UP
Listen in your browser - HTML5 player(in browser, HTML5)
Click here to listen with your own player(launches your MP3 player)

MSLP 240550Z 02004KT 360V070 CAVOK 23/20 Q1011 A2986 NOSIG

MSLP Flight Activity (Flightaware)

Listeners: 0 out of 1300 total

Avianca Ops: 123.500
CCA: 119.300
CENAMER: 124.100
Comalapa Authorizations: 121.250
Comalapa Departure: 123.900
Comalapa Ground: 121.700
Comalapa Tower: 118.000
Compalapa Approach: 119.900
Ilopango Tower: 118.300
TACA Ops: 130.500

MSSS Tower
San Salvador, El Salvador

Feed Status: DOWN
Offline since: 2021-09-02 04:27:22 UTC


Ilopango Tower: 118.300